Home > Weather > Huelva > Past weeks

Flag for Spain Past Weather in Huelva, Spain — Yesterday and Last 2 Weeks

Now
66 °F

Clear.


Feels Like: 66 °F
Forecast: 66 / 83 °F
Wind: No wind

Location: Rota Airport

Current Time: Jun 25, 2016 at 8:59:04 AM

Latest Report: Jun 25, 2016 at 8:00 AM


Visibility: 10 mi

Pressure: 29.95 "Hg

Humidity: 88%

Dew Point: 63 °F

Location of HuelvaLocation

Past Weather in Huelva — Graph

°F

Huelva Temperature Yesterday

Maximum temperature yesterday: 82 °F (at 5:00 PM)
Minimum temperature yesterday: 63 °F (at 5:00 AM)
Average temperature yesterday: 73 °F

High & Low Weather Summary for the Past Weeks

 TemperatureHumidityPressure
High91 °F (Jun 21, 3:00 PM)88% (Jun 12, 12:00 AM)30.21 "Hg (Jun 12, 12:00 AM)
Low59 °F (Jun 18, 6:00 AM)18% (Jun 21, 4:00 PM)29.83 "Hg (Jun 15, 7:00 PM)
Average73 °F63%30.01 "Hg
* Reported Jun 10 7:00 AM — Jun 25 7:00 AM, Huelva, Weather by CustomWeather, © 2016

Note: Actual official high and low records may vary slightly from our data, if they occured in-between our weather recording intervals... More about our weather records

Advertising

Huelva Weather History for the Previous 24 Hours

Scroll right to see more
 ConditionsComfort  
Time TempWeatherWind HumidityBarometerVisibility
7:00 AM
Sat, Jun 25
66 °FClear.No wind88%29.95 "Hg10 mi
6:00 AM66 °FClear.1 mph88%29.95 "Hg10 mi
5:00 AM66 °FClear.No wind88%29.95 "Hg10 mi
4:00 AM68 °FClear.1 mph88%29.98 "Hg10 mi
3:00 AM68 °FClear.No wind88%29.98 "Hg10 mi
2:00 AM70 °FClear.1 mph83%29.98 "Hg10 mi
1:00 AM70 °FClear.2 mph73%30.01 "Hg10 mi
12:00 AM72 °FClear.No wind69%30.01 "Hg10 mi
11:00 PM
Fri, Jun 24
73 °FPassing clouds.6 mph69%30.01 "HgN/A
10:00 PM72 °FSunny.9 mph78%29.98 "Hg10 mi
9:00 PM75 °FSunny.12 mph69%29.98 "Hg10 mi
8:00 PM75 °FPassing clouds.14 mph74%29.98 "HgN/A
7:00 PM77 °FPassing clouds.13 mph74%30.01 "HgN/A
6:00 PM82 °FPassing clouds.13 mph58%30.01 "HgN/A
5:00 PM82 °FPassing clouds.14 mph45%30.01 "HgN/A
4:00 PM81 °FPassing clouds.15 mph54%30.01 "HgN/A
3:00 PM81 °FPassing clouds.12 mph51%30.04 "HgN/A
2:00 PM81 °FPassing clouds.9 mph54%30.04 "HgN/A
1:00 PM77 °FPassing clouds.9 mph65%30.07 "HgN/A
12:00 PM77 °FPassing clouds.5 mph61%30.07 "HgN/A
11:00 AM79 °FSunny.2 mph58%30.07 "Hg10 mi
10:00 AM77 °FSunny.2 mph61%30.07 "Hg10 mi
9:00 AM72 °FSunny.2 mph69%30.07 "Hg10 mi
8:00 AM64 °FClear.2 mph83%30.07 "Hg10 mi
Weather by CustomWeather, © 2016

See weather overviewHow to use our weather pages